Weather in Lesnaya

Russia / Kamchatka Krai     59°27′59″N   160°33′26″E
temp.,
°C
wind,
m/s
gust,
m/s
humid.,
%
clouds,
%
prec.,
mm/h
press.,
hPa
HPBL,
m
28 february, sun
sun2800:00−22ne56949 0.0 102188
03:00−22ne569366 0.0 102194
06:00−22ne579677 0.0 1020104
09:00−22ne679846 0.0 1019123
12:00−20ne789973 0.0 1017191
15:00−18nne6899100 0.0 1015196
18:00−17nne5697100 0.0 1012129
21:00−16ne3493100 0.0 101155
1 march, mon
mon100:00−17ne91288100 0.0 1008179
03:00−19nne121690100 0.0 1004275
06:00−21nne111593100 0.0 1002323
09:00−21nne111490100 0.0 1000357
12:00−20nne111489100 0.0 1000435
15:00−19nne101387100 0.0 999567
18:00−19nne101384100 0.0 999630
21:00−20nne71189100 0.0 1002404
2 march, tue
tue200:00−21ne3589100 0.0 1004210
03:00−21ne3485100 0.0 1006160
06:00−21ene2380100 0.0 1008156
09:00−21se2277100 0.0 101155
12:00−18ssw2274100 0.0 1014445
15:00−17s2470100 0.0 1016794
18:00−17sw2391100 0.1 1019195
21:00−18s4595100 0.1 1022145
3 march, wed
wed300:00−18sse3489100 0.3 102492
03:00−20se337686 0.0 102420
06:00−19se237077 0.0 102520
09:00−15ese2289100 0.1 102444
12:00−11ne4577100 0.1 1021175
15:00−10ne6867100 0.0 1014548
18:00−10ne6874100 0.1 1005230
21:00−7n4682100 0.1 994156
4 march, thu
thu400:00−4ese21284100 0.3 981280
03:000ese41587100 0.2 969514
06:00+3se81580100 0.5 963245
09:00−13s223373100 2.7 969922
12:00−13sw172188100 3.0 9761569
15:00−15sw192584100 0.3 9811631
18:00−15sw182670100 0.4 9831477
21:00−16sw16246686 0.0 9851174